User: anonymous   Login
Location: Brunsen
(51.8651°N, 9.8610°E)
Time: 16:52:00
(UTC+00:00)
Language:

Cosmos 1908 Rocket - Orbit

View from above orbital plane
View from above orbital plane
View from above satellite
View from above satellite

Ground track
Ground track

The orbit data is extracted from the following two-line orbital elements,

1 18749U 88001B   24201.89524168  .00001002  00000-0  11602-3 0  9994
2 18749  82.5124  37.3076 0019653  56.7303 303.5792 14.84408003953296
Epoch (UTC): 19 July 2024 21:29:08
Eccentricity: 0.0019653
inclination: 82.5124°
perigee height: 602 km
apogee height: 629 km
right ascension of ascending node: 37.3076°
argument of perigee: 56.7303°
revolutions per day: 14.84408003
mean anomaly at epoch: 303.5792°
orbit number at epoch: 95329

The dashed part of the orbit path shows where the satellite is in the earth's shadow,  

DLR